Find Starlink 2041

NORAD ID: 47657 Int'l Des: 2021-012 Owner: SPXS Country: US Constellation: starlink operational
LEOCIRCULAR

現在のビュー

3D地球を読み込み中...

About Starlink 2041

Starlink 2041 (NORAD 47657) is a starlink constellation satellite (v1.0) launched Feb 16, 2021 by SPXS of US. It operates in LEO, CIRCULAR orbit with a mass of 260.00 kg.

Starlink 2041について

説明を読み込み中...

次回通過

Passes for default location (London). Set your location on the main map for personalized predictions.

高度履歴

Loading altitude history...

軌道要素

1 47657U 21012AP 26195.66668981 .00115076 00000-0 42601-3 0 9994
2 47657 53.1480 159.4629 0007498 49.5076 168.5849 15.87283681 5967
Epoch: Jul 14, 2026 • Age: 6 hours

現在のステータス

高度 317.7 km
遠地点 / 近地点 N/A
速度 7.72 km/s
衛星直下点 -27.91°S, 135.34°W
打ち上げ日 Feb 16, 2021
運用期間 5.4 years
タイプ internet

技術仕様

分類 Payload
質量 260.00 kg
乾燥質量 248.00 kg
総質量 260.00 kg
長さ 0.20 m
直径 2.80 m
スパン 9.00 m
形状 Box + pan
製造者 SPXS
バスタイプ Starlink
フェーズステータス In Orbit
所有者/国 SPXS/US

Most Searched